This is the latest recevied weather packets stored in our database for station/object PA2JOK. If no packets are shown the sender has not sent any weather packets the latest 10 day(s).
| Time | Temp. | Humidity | Pressure | Rain* | Wind** | Luminosity | Snow |
|---|---|---|---|---|---|---|---|
| 1777933082 | 12.78° C | 84% | 1012.4 hPa | 0 mm | - | - | - |
| 1777932182 | 12.78° C | 84% | 1012.6 hPa | 0 mm | - | - | - |
| 1777931283 | 12.78° C | 83% | 1012.6 hPa | 0 mm | - | - | - |
| 1777930383 | 12.78° C | 83% | 1012.7 hPa | 0 mm | - | - | - |
| 1777929482 | 12.78° C | 83% | 1012.9 hPa | 0 mm | - | - | - |
| 1777928582 | 13.33° C | 83% | 1012.8 hPa | 0 mm | - | - | - |
| 1777927682 | 13.33° C | 83% | 1012.8 hPa | 0 mm | - | - | - |
| 1777926783 | 13.33° C | 83% | 1012.8 hPa | 0 mm | - | - | - |
| 1777925883 | 13.33° C | 82% | 1012.8 hPa | 0 mm | - | - | - |
| 1777924983 | 13.89° C | 82% | 1012.7 hPa | 0 mm | - | - | - |
| 1777924084 | 13.89° C | 81% | 1012.7 hPa | 0 mm | - | - | - |
| 1777923183 | 13.89° C | 81% | 1012.4 hPa | 0 mm | - | - | - |
| 1777922283 | 13.89° C | 81% | 1012.3 hPa | 0 mm | - | - | - |
| 1777921382 | 14.44° C | 81% | 1012.2 hPa | 0 mm | - | - | - |
| 1777920483 | 15° C | 81% | 1012.2 hPa | 0 mm | - | - | - |
| 1777919583 | 15° C | 81% | 1012.2 hPa | 0 mm | - | - | - |
| 1777918683 | 15.56° C | 80% | 1012.2 hPa | 0 mm | - | - | - |
| 1777917783 | 15.56° C | 80% | 1012.1 hPa | 0 mm | - | - | - |
| 1777916883 | 16.11° C | 78% | 1012.1 hPa | 0 mm | - | - | - |
| 1777915983 | 16.67° C | 75% | 1012.1 hPa | 0 mm | - | - | - |
| 1777915083 | 16.67° C | 75% | 1012.1 hPa | 0 mm | - | - | - |
| 1777914183 | 17.78° C | 73% | 1012 hPa | 0 mm | - | - | - |
| 1777913282 | 18.33° C | 66% | 1012.1 hPa | 0 mm | - | - | - |
| 1777912382 | 18.33° C | 65% | 1012.1 hPa | 0 mm | - | - | - |
| 1777911483 | 18.33° C | 66% | 1012.1 hPa | 0 mm | - | - | - |
* Rain latest hour (hover to see other rain measurements)
** Current wind speed in m/s (hover to see current wind gust speed)